TimeMDT,TemperatureF,Dew PointF,Humidity,Sea Level PressureIn,VisibilityMPH,Wind Direction,Wind SpeedMPH,Gust SpeedMPH,PrecipitationIn,Events,Conditions,WindDirDegrees,DateUTC
12:53 AM,39.9,19.9,45,30.10,10.0,SW,10.4,-,N/A,,Clear,220,2013-10-19 06:53:00
1:53 AM,34.0,21.0,59,30.10,10.0,WSW,6.9,-,N/A,,Clear,250,2013-10-19 07:53:00
2:53 AM,35.1,21.0,57,30.09,10.0,SW,12.7,-,N/A,,Clear,220,2013-10-19 08:53:00
3:53 AM,39.0,21.0,49,30.06,10.0,SW,12.7,-,N/A,,Clear,220,2013-10-19 09:53:00
4:53 AM,36.0,21.0,55,30.06,10.0,SW,11.5,-,N/A,,Clear,220,2013-10-19 10:53:00
5:53 AM,35.1,21.0,57,30.08,10.0,WSW,4.6,-,N/A,,Clear,240,2013-10-19 11:53:00
6:53 AM,28.0,21.0,75,30.12,10.0,Calm,Calm,-,N/A,,Clear,0,2013-10-19 12:53:00
7:53 AM,35.1,21.0,57,30.14,10.0,SSW,11.5,-,N/A,,Clear,200,2013-10-19 13:53:00
8:53 AM,33.1,21.9,64,30.13,10.0,SW,6.9,-,N/A,,Clear,220,2013-10-19 14:53:00
9:53 AM,39.9,24.1,53,30.11,10.0,WSW,5.8,-,N/A,,Clear,240,2013-10-19 15:53:00
10:53 AM,44.1,24.1,45,30.09,10.0,WNW,4.6,-,N/A,,Clear,300,2013-10-19 16:53:00
11:53 AM,48.9,27.0,43,30.07,10.0,Calm,Calm,-,N/A,,Clear,0,2013-10-19 17:53:00
12:53 PM,55.9,25.0,30,30.02,10.0,SW,13.8,18.4,N/A,,Clear,230,2013-10-19 18:53:00
1:53 PM,57.0,25.0,29,30.01,10.0,SW,16.1,23.0,N/A,,Clear,220,2013-10-19 19:53:00
2:53 PM,59.0,24.1,26,29.99,10.0,SW,4.6,-,N/A,,Clear,230,2013-10-19 20:53:00
3:53 PM,60.1,25.0,26,29.96,10.0,NNW,3.5,-,N/A,,Clear,340,2013-10-19 21:53:00
4:53 PM,55.9,28.0,34,29.97,10.0,South,4.6,-,N/A,,Clear,180,2013-10-19 22:53:00
5:53 PM,55.9,25.0,30,29.97,10.0,West,6.9,-,N/A,,Clear,260,2013-10-19 23:53:00
6:53 PM,52.0,23.0,32,30.00,10.0,WSW,13.8,-,N/A,,Clear,250,2013-10-20 00:53:00
7:53 PM,53.1,21.9,30,29.98,10.0,WSW,12.7,-,N/A,,Clear,240,2013-10-20 01:53:00
8:53 PM,50.0,21.9,33,29.99,10.0,WSW,12.7,-,N/A,,Scattered Clouds,240,2013-10-20 02:53:00
9:53 PM,48.0,21.0,34,29.99,10.0,WSW,10.4,-,N/A,,Clear,240,2013-10-20 03:53:00
10:53 PM,45.0,19.9,37,29.99,10.0,SSW,10.4,-,N/A,,Partly Cloudy,210,2013-10-20 04:53:00
11:53 PM,46.0,19.9,35,29.98,10.0,WSW,8.1,-,N/A,,Overcast,240,2013-10-20 05:53:00